Location: Newark
(36.1358°N, 115.1208°W)
Time: 20:47:26
(UTC+00:00)

SR - All Passes

Search period start: 28 February 2020 00:00
Search period end: 09 March 2020 00:00
Orbit: 576 x 880 km, 66.7° (Epoch: 27 February)

Date Brightness Start Highest point End Pass type
(mag) Time Alt. Az. Time Alt. Az. Time Alt. Az.
28 Feb - 05:04:06 10° NNE 05:05:21 11° NE 05:06:34 10° ENE visible
28 Feb - 06:43:18 10° NNW 06:48:24 80° ENE 06:53:02 10° SSE night (unlit)
28 Feb - 19:31:00 10° SE 19:33:23 13° ESE 19:35:47 10° ENE daylight
28 Feb - 21:08:49 10° SSW 21:14:44 85° WNW 21:20:39 10° NNE daylight
28 Feb - 22:54:29 10° WNW 22:57:39 15° NW 23:00:49 10° NNW daylight
29 Feb - 05:53:53 10° NNW 05:58:37 37° NE 06:02:57 10° ESE visible
29 Feb - 07:36:38 10° WNW 07:40:19 21° WSW 07:43:47 10° SSW night (unlit)
29 Feb - 20:19:29 10° S 20:25:08 50° ESE 20:30:48 10° NE daylight
29 Feb - 22:02:38 10° WSW 22:07:29 26° NW 22:12:18 10° N daylight
01 Mar - 05:04:56 10° N 05:08:34 19° NE 05:11:59 10° E visible
01 Mar - 06:46:10 10° NW 06:50:59 48° WSW 06:55:23 10° S night (unlit)
01 Mar - 19:31:03 10° SSE 19:35:43 25° ESE 19:40:24 10° NE daylight
01 Mar - 21:11:51 10° SW 21:17:32 47° WNW 21:23:10 10° NNE daylight
02 Mar - 05:56:21 10° NNW 06:01:24 74° ENE 06:05:59 10° SSE visible
02 Mar - 18:44:32 10° ESE 18:46:27 12° ESE 18:48:22 10° E daylight
02 Mar - 20:21:51 10° SSW 20:27:46 89° WNW 20:33:39 10° NNE daylight
02 Mar - 22:07:15 10° W 22:10:38 15° NW 22:13:58 10° N daylight
03 Mar - 05:06:58 10° N 05:11:35 34° NE 05:15:50 10° ESE visible
03 Mar - 06:49:33 10° NW 06:53:22 23° WSW 06:56:55 10° SSW night (unlit)
03 Mar - 19:32:35 10° S 19:38:12 47° ESE 19:43:47 10° NE daylight
03 Mar - 21:15:31 10° WSW 21:20:28 27° NW 21:25:23 10° N daylight
04 Mar - 04:18:05 10° N 04:21:32 18° NE 04:24:46 10° E visible
04 Mar - 05:59:10 10° NW 06:04:00 52° WSW 06:08:24 10° S visible
04 Mar - 18:44:14 10° SSE 18:48:46 23° ESE 18:53:18 10° NE daylight
04 Mar - 20:24:49 10° SW 20:30:33 50° WNW 20:36:13 10° NNE daylight
05 Mar - 05:09:24 10° NNW 05:14:24 69° ENE 05:18:57 10° SE visible
05 Mar - 06:55:10 10° W 06:55:35 10° W 06:56:01 10° WSW night (unlit)
05 Mar - 17:58:17 10° ESE 17:59:32 11° ESE 18:00:46 10° E daylight
05 Mar - 19:34:53 10° SSW 19:40:48 86° ESE 19:46:41 10° NNE daylight
05 Mar - 21:20:02 10° W 21:23:36 16° NW 21:27:08 10° N daylight
06 Mar - 04:20:02 10° N 04:24:34 32° NE 04:28:43 10° ESE visible
06 Mar - 06:02:29 10° NW 06:06:24 24° WSW 06:10:03 10° SSW visible
06 Mar - 18:45:41 10° S 18:51:14 44° ESE 18:56:46 10° NE daylight
06 Mar - 20:28:26 10° WSW 20:33:29 29° NW 20:38:27 10° N daylight
07 Mar - 03:31:16 10° N 03:34:29 17° NE 03:37:32 10° E visible
07 Mar - 05:12:10 10° NW 05:17:01 56° WSW 05:21:26 10° S visible
07 Mar - 17:57:27 10° SSE 18:01:50 22° ESE 18:06:12 10° ENE daylight
07 Mar - 19:37:47 10° SW 19:43:34 53° WNW 19:49:15 10° NNE daylight
08 Mar - 04:22:25 10° NNW 04:27:24 64° ENE 04:31:54 10° SE visible
08 Mar - 06:07:23 10° W 06:08:38 11° WSW 06:09:52 10° WSW visible
08 Mar - 18:47:55 10° SSW 18:53:50 81° ESE 18:59:41 10° NNE daylight
08 Mar - 20:32:50 10° W 20:36:34 17° NW 20:40:15 10° N daylight
